Hourly Data Report for October 01, 2016

All times are specified in Local Standard Time (LST). Add 1 hour to adjust for Daylight Saving Time where and when it is observed.

KUGLUKTUK A
NUNAVUT

67°49'00.000" N
115°08'38.000" W
22.60 m
2300903
71938
YCO

Download Data

Hourly Data (October 2016)
Hourly Data Report for October 1, 2016
Temp Definition
°C
Dew Point Temp Definition
°C
Rel Hum Definition
%
Wind Dir Definition
10's deg

Wind Spd Definition
km/h
Visibility Definition
km
Stn Press Definition
kPa
Hmdx Definition


Wind Chill Definition


Weather Definition


TIME
00:00 Legend Double Dagger -0.9 -3.3 84 27 24 24.1 102.52   -7 LegendNANA
01:00 Legend Double Dagger -1.2 -3.1 87 27 23 9.7 102.54   -7 Fog
02:00 Legend Double Dagger -1.4 -3.1 88 26 24 9.7 102.57   -8 Freezing Drizzle,Fog
03:00 Legend Double Dagger -1.6 -3.2 89 26 23 9.7 102.57   -8 Freezing Drizzle,Fog
04:00 Legend Double Dagger -1.7 -3.3 89 26 23 9.7 102.56   -8 Freezing Drizzle,Fog
05:00 Legend Double Dagger -1.8 -3.1 91 26 22 9.7 102.57   -8 Freezing Drizzle,Fog
06:00 Legend Double Dagger -1.8 -3.1 91 26 26 8.1 102.58   -8 Snow,Fog
07:00 Legend Double Dagger -1.9 -2.9 93 25 21 12.9 102.60   -8 LegendNANA
08:00 Legend Double Dagger -1.9 -2.7 94 27 21 12.9 102.63   -8 Cloudy
09:00 Legend Double Dagger -1.7 -2.8 92 26 18 12.9 102.66   -7 Freezing Drizzle
10:00 Legend Double Dagger -1.5 -2.6 92 24 14 12.9 102.69   -6 Freezing Drizzle
11:00 Legend Double Dagger -1.0 -2.4 90 22 9 12.9 102.72   -4 Freezing Drizzle
12:00 Legend Double Dagger -0.7 -2.4 88 21 13 19.3 102.76   -5 LegendNANA
13:00 Legend Double Dagger -0.6 -2.7 86 22 16 16.1 102.79   -5 LegendNANA
14:00 Legend Double Dagger -0.7 -3.1 84 21 14 19.3 102.81   -5 Mostly Cloudy
15:00 Legend Double Dagger -0.9 -3.8 81 20 17 24.1 102.83   -6 LegendNANA
16:00 Legend Double Dagger -1.0 -4.9 75 21 9 24.1 102.81   -4 LegendNANA
17:00 Legend Double Dagger -3.1 -6.2 79 21 8 24.1 102.82   -6 Mainly Clear
18:00 Legend Double Dagger -4.9 -7.4 83 18 9 24.1 102.83   -9 LegendNANA
19:00 Legend Double Dagger -5.6 -7.7 85 18 9 24.1 102.83   -10 LegendNANA
20:00 Legend Double Dagger -5.2 -8.1 80 20 8 24.1 102.84   -9 Mainly Clear
21:00 Legend Double Dagger -5.6 -7.6 86 19 7 24.1 102.85   -9 LegendNANA
22:00 Legend Double Dagger -6.5 -8.0 89 13 3 24.1 102.84   -8 LegendNANA
23:00 Legend Double Dagger -5.5 -7.3 87 18 8 24.1 102.80   -9 Mostly Cloudy

Notes on Data Quality.

Legend

  • E = Estimated
  • M = Missing
  • NA = Not Available
  • ‡ = Partner data that is not subject to review by the National Climate Archives
Date modified: